STARLINK-11531, 62841

Orbit data source: Space-Track

STARLINK-11531, 62841 is a payload satellite owned by SpaceX/Seattle (US) in LEO that was launched on Mon, 27 Jan 2025 UTC via an FALCON 9 launch vehicle from the Air Force Eastern Test Range (AFETR). Payload-class satellites include a variety of spacecraft equipped with specific instruments for various scientific and technological missions. These include communications satellites like Starlink; space stations such as the ISS; scientific satellites like the Hubble; Earth observation satellites from companies like Planet Labs, Umbra, and HawkEye 360; GPS; miniature CubeSats for education and research; and military/defense satellites.

Loading next visibility...
Identifier
62841, 2025-019N
Orbit
LEO
Country
Flag of USUS
Related business
Manufacturer
SpaceX/Seattle
Mission
Operational Commercial Communications
Bus & Motor
STARLINK V2MD, Unknown motor
Mass
960 kg wet, ~910 kg dry
Launch date (UTC)
2025-01-27 (9 months ago)
Launch vehicle
FALCON 9
Launch site
Air Force Eastern Test Range (AFETR)
Object type
Payload
Rocket body
Debris
Shape & HBR
Box + 2 Pan, 18.1 m
Radar Cross Section
36.964 m², Large (>1 m²)

Expand to show TLE details & history
Last TLE update: 21 hours ago

TLE from 21 hours ago
0 STARLINK-11531
1 62841U 25019N   25305.53562888  .00235085  00000-0  17710-2 0  9999
2 62841  42.9985 358.6131 0002208 299.6886  60.3762 15.71016917 43725
Epoch: 2025-11-01T12:51Z
TLE epoch observation values (Epoch: 2025-11-01T12:51:18.335Z)
Latitude
0.00001°
Longitude
124.72241°
Altitude
355.026 km
Speed
7.698 km/s
True Right ascension
23h 54m 27s
True Declination
0° 00' 00"
Sunlit
Object was in full shadow at epoch
Visualization orbit readout
Latitude
Unknown
Longitude
Unknown
Altitude
Unknown
Speed
Unknown
Apparent Right ascension
Unknown
Apparent Declination
Unknown
Sunlit
N/A
Visualization observer readout
Local Sidereal Time
05:11:59
Azimuth
Unknown
Elevation
Unknown
Doppler factor
Unknown
Orbital elements
Apogee altitude
359.459 km
Perigee altitude
356.484 km
Semi-major axis
6,736.108 km
Eccentricity
0.00022
Inclination
42.9985°
RAAN
358.6131°
Arg. of periapsis
299.6886°
True anomaly
60.3982°
Mean anomaly
60.3762°
Eccentric anomaly
60.3872°
Mean motion
3.92581 °/min
Orbital period
91.7 mins
BSTAR
0.001771
Loading maneuver chart data...
Computing Atmospheric mass density...
Loading historical data...
Loading historical data...
Loading historical data...
Loading historical data...
Loading historical data...
Loading historical data...
Loading historical data...

Documentation

Showing up to 5 results
|